Regional Weather Roundup
Issued by NWS

Home | Current Version | Previous Version | Text Only | Print | Product List | Glossary On
Versions: 1 2 3 4 5 6 7 8 9 10 11 12 13 14 15 16 17 18 19 20 21 22 23 24 25 26 27 28 29 30 31 32 33 34 35 36 37 38 39 40 41 42 43 44 45 46 47 48 49 50
000
ASUS43 KLSX 010007
RWRMO

WEATHER SUMMARY FOR MISSOURI
NATIONAL WEATHER SERVICE SPRINGFIELD MO
700 PM CDT WED AUG 31 2016

NOTE: "FAIR" INDICATES FEW OR NO CLOUDS BELOW 12,000 FEET WITH NO
       SIGNIFICANT WEATHER AND/OR OBSTRUCTIONS TO VISIBILITY.
       CURRENT SKY AND/OR WEATHER CONDITIONS ARE NOT AVAILABLE FOR
       CHILLICOTHE AND FARMINGTON.

MOZ001>031-035>038-043-044-053-054-010100-
...NORTHERN AND WESTERN MISSOURI...

CITY           SKY/WX    TMP DP  RH WIND       PRES   REMARKS
KANSAS CTY INT MOCLDY    75  64  68 N9        30.09S
6HR MIN TEMP:  75; 6HR MAX TEMP:  82;

KANSAS C DTWN  MOCLDY    80  66  62 N9        30.06F
6HR MIN TEMP:  79; 6HR MAX TEMP:  83;

LEE`S SUMMIT   MOCLDY    78  66  66 NE10      30.08S
6HR MIN TEMP:  72; 6HR MAX TEMP:  80; 6HR PCP:  0.16;

ST JOSEPH      CLOUDY    76  62  62 NE6       30.10S
6HR MIN TEMP:  76; 6HR MAX TEMP:  81;

CHILLICOTHE      N/A     75  66  73 N3        30.10S
6HR MIN TEMP:  75; 6HR MAX TEMP:  84;

KIRKSVILLE     PTCLDY    73  63  70 N7        30.10S
6HR MIN TEMP:  73; 6HR MAX TEMP:  80;


$$
MOZ066>068-077>081-088>096-101>105-010100-
...SOUTHWEST MISSOURI...

CITY           SKY/WX    TMP DP  RH WIND       PRES   REMARKS
SPRINGFIELD    CLOUDY    74  69  85 N7        30.04F
6HR MIN TEMP:  73; 6HR MAX TEMP:  83; 6HR PCP:  0.01;

JOPLIN         CLOUDY    74  71  91 NE8       30.04S
6HR MIN TEMP:  71; 6HR MAX TEMP:  85; 6HR PCP:  0.49;

BRANSON        MOCLDY    77  72  83 CALM      30.03F

$$
MOZ032>034-039>042-045>050-055>058-069>072-010100-
...CENTRAL MISSOURI...

CITY           SKY/WX    TMP DP  RH WIND       PRES   REMARKS
COLUMBIA       CLOUDY    77  72  84 N6        30.06S
6HR MIN TEMP:  73; 6HR MAX TEMP:  82; 6HR PCP:  0.13;

JEFFERSON CITY LGT RAIN  74  72  93 CALM      30.04S
6HR MIN TEMP:  71; 6HR MAX TEMP:  80; 6HR PCP:  0.01;

ROLLA          CLOUDY    76  71  85 N6        30.04S
6HR MIN TEMP:  74; 6HR MAX TEMP:  79; 6HR PCP:  0.04;

SEDALIA        PTCLDY    77  70  79 CALM      30.07F
6HR MIN TEMP:  76; 6HR MAX TEMP:  83; 6HR PCP: TRACE;

WHITEMAN AFB   LGT RAIN  79  74  85 N8        30.05S
OSAGE BEACH    MOCLDY    74  72  93 CALM      30.06S

$$
MOZ051-052-059>065-010100-
...EAST CENTRAL MISSOURI...

CITY           SKY/WX    TMP DP  RH WIND       PRES   REMARKS
ST LOUIS INTL  MOCLDY    78  66  66 NW3       30.02F
6HR MIN TEMP:  76; 6HR MAX TEMP:  87; 6HR PCP: TRACE;

SPIRIT OF STL  CLOUDY    77  69  76 CALM      30.01S
6HR MIN TEMP:  77; 6HR MAX TEMP:  85;

ST CHARLES     CLOUDY    77  67  71 W5        30.01S
6HR MIN TEMP:  74; 6HR MAX TEMP:  82; 6HR PCP:  0.02;


$$
MOZ072>076-082>087-097>100-106>115-010100-
...SOUTH CENTRAL AND SOUTHEAST MISSOURI...

CITY           SKY/WX    TMP DP  RH WIND       PRES   REMARKS
CAPE GIRARDEAU MOCLDY    81  69  67 N9        29.96F
6HR MIN TEMP:  81; 6HR MAX TEMP:  90;

FARMINGTON     CLOUDY    75  70  84 NE7       30.03F
6HR MIN TEMP:  75; 6HR MAX TEMP:  85; 6HR PCP: TRACE;

POPLAR BLUFF   CLEAR     82  73  74 N7        29.95F
6HR MIN TEMP:  82; 6HR MAX TEMP:  90;

WEST PLAINS    MOCLDY    78  70  76 N8        30.04R
6HR MIN TEMP:  78; 6HR MAX TEMP:  85;


$$



USA.gov is the U.S. government's official web portal to all federal, state and local government web resources and services.